Weather in Ryazan

Russia / Ryazan Oblast     54°37′45″N   39°44′10″E
temp.,
°C
wind,
m/s
gust,
m/s
humid.,
%
clouds,
%
prec.,
mm/h
press.,
hPa
HPBL,
m
12 may, wed
wed1200:00+9se239295 0.0 102743
03:00+9sse2289100 0.0 102621
06:00+10e118585 0.0 102719
09:00+14nne237196 0.0 1025390
12:00+16ene41276100 0.3 10221240
15:00+14e71684100 0.6 10211062
18:00+14e81691100 3.7 10181049
21:00+13se5109698 5.3 1019710
13 may, thu
thu1300:00+9s3594100 0.0 1020360
03:00+7e119425 0.0 102114
06:00+8ese25945 0.0 1021148
09:00+14ese3572100 0.0 1019464
12:00+18ese455187 0.0 1017924
15:00+19s455844 0.0 10161122
18:00+15w45766 0.0 1016340
21:00+11se0191100 0.0 101710
14 may, fri
fri1400:00+11ese228955 0.2 101734
03:00+12se258895 0.2 1017122
06:00+12sse259096 0.0 1018159
09:00+16sse467688 0.1 1018414
12:00+21sse586263 0.0 10171143
15:00+23se586295 0.0 10151409
18:00+21se51072100 0.4 1013726
21:00+17sse4149197 2.1 1013333
15 may, sat
sat1500:00+15se369485 0.0 1013120
03:00+15ssw2696100 2.3 1013132
06:00+15sse1195100 1.3 101341
09:00+19e5990100 2.5 1010344
12:00+19s61187100 0.9 1011652
15:00+18s512813 1.8 1011725
18:00+20s48790 0.8 1011457
21:00+15ssw339222 3.4 101146
16 may, sun
sun1600:00+14sw3493100 0.2 101261
03:00+13sw33940 0.2 101249
06:00+14ssw25930 0.0 1013157
09:00+18sw47764 0.0 1013709
12:00+21sw685911 0.0 10141716
15:00+22sw34545 0.0 10131709
18:00+21sw246590 0.0 1013549
21:00+16wsw118195 0.0 101411